Location: Lake Lucerne
(45.5315°N, 88.8489°W)
Time: 03:42:11
(UTC-05:00)

Tiangong 2 - Visible Passes

Search period start: 22 October 2018 00:00
Search period end: 01 November 2018 00:00
Orbit: 384 x 392 km, 42.8° (Epoch: 22 October)

Date Brightness Start Highest point End Pass type
(mag) Time Alt. Az. Time Alt. Az. Time Alt. Az.
28 Oct 3.8 19:59:35 10° SW 20:00:13 14° SSW 20:00:13 14° SSW visible
29 Oct 3.0 19:01:50 10° SSW 19:04:03 18° SSE 19:04:40 17° SE visible
30 Oct 2.5 19:39:11 10° SW 19:41:21 30° SSW 19:41:21 30° SSW visible
31 Oct 2.6 18:41:06 10° SW 18:43:49 26° SSE 18:45:40 15° ESE visible
31 Oct 4.1 20:17:14 10° WSW 20:17:57 16° WSW 20:17:57 16° WSW visible
